Location: Gravenhurst
(44.9196°N, 79.3742°W)
Time: 16:02:26
(UTC-05:00)

Envisat - Pass Details

Date: 27 October 2019
Orbit: 764 x 766 km, 98.1° (Epoch: 11 November)

Event Time Altitude Azimuth Distance (km) Brightness Sun altitude
Rises 19:09:40 0° 162° (SSE) 3,218 6.1 -10.5°
Reaches altitude 10° 19:11:57 10° 162° (SSE) 2,296 5.4 -10.9°
Maximum altitude 19:17:01 82° 75° (ENE) 778 2.9 -11.8°
Drops below altitude 10° 19:22:08 10° 348° (NNW) 2,312 5.6 -12.7°
Sets 19:24:26 0° 348° (NNW) 3,242 6.3 -13.1°
